Location: Peterborough
(44.3091°N, 78.3197°W)
Time: 16:43:08
(UTC-04:00)

Transit 2A - Pass Details

Date: 28 March 2023
Orbit: 591 x 964 km, 66.7° (Epoch: 04 June)

Event Time Altitude Azimuth Distance (km) Brightness Sun altitude
Rises 14:27:32 0° 326° (NW) 3,643 9.3 46.1°
Reaches altitude 10° 14:30:06 10° 324° (NW) 2,706 8.7 45.9°
Maximum altitude 14:36:28 71° 242° (WSW) 1,010 7.9 45.3°
Drops below altitude 10° 14:42:38 10° 160° (SSE) 2,623 9.3 44.8°
Sets 14:45:06 0° 158° (SSE) 3,525 9.8 44.6°
